Regional Weather Roundup
Issued by NWS

Home | Current Version | Previous Version | Text Only | Print | Product List | Glossary Off
Versions: 1 2 3 4 5 6 7 8 9 10 11 12 13 14 15 16 17 18 19 20 21 22 23 24 25 26 27 28 29 30 31 32 33 34 35 36 37 38 39 40 41 42 43 44 45 46 47 48 49 50

000
ASUS45 KPSR 272110
RWRAZ

ARIZONA HOURLY REGIONAL WEATHER ROUNDUP
NATIONAL WEATHER SERVICE PHOENIX AZ
200 PM MST THU APR 27 2017

NOTE: FAIR INDICATES FEW OR NO CLOUDS BELOW 12,000 FEET WITH NO
SIGNIFICANT WEATHER AND/OR OBSTRUCTIONS TO VISIBILITY.

AZZ001>003-036-272200-
NORTHWEST ARIZONA

CITY           SKY/WX    TMP DP  RH WIND       PRES   REMARKS
BULLHEAD CITY  FAIR      88  25  10 NE8       29.63F
KINGMAN        FAIR      79  25  13 W10G25    29.76F
$$

AZZ004>008-015-016-018-272200-
NORTH CENTRAL ARIZONA

CITY           SKY/WX    TMP DP  RH WIND       PRES   REMARKS
GRAND CANYON   FAIR      60  24  25 W13G26    29.79F
WILLIAMS       FAIR      64  19  17 W20       29.84F
PRESCOTT       FAIR      73  34  23 SW20G26   29.79F
FLAGSTAFF      FAIR      64  19  17 W15G35    29.80F
PAYSON         FAIR      72  32  23 SW15G24   29.82S
PAGE           FAIR      71  18  13 W13G29    29.68S
$$

AZZ009>014-017-272200-
NORTHEAST ARIZONA

CITY           SKY/WX    TMP DP  RH WIND       PRES   REMARKS
WINSLOW        PTSUNNY   76  28  17 SW24      29.69F
SAINT JOHNS    FAIR      74  28  18 W30G40    29.68F
WINDOW ROCK    FAIR      67  24  19 W23G33    29.70F
SHOW LOW       FAIR      68  28  22 SW22G33   29.80R
$$

AZZ540-542>544-546-548-272200-
GREATER PHOENIX AREA

CITY           SKY/WX    TMP DP  RH WIND       PRES   REMARKS
PHOENIX        PTSUNNY   87  39  18 W8        29.61F
BUCKEYE        FAIR      88  36  15 W8        29.63F
GLENDALE       PTSUNNY   90  39  17 S13G23    29.63F
LUKE AFB       FAIR      87  40  19 SW15      29.61F
DEER VALLEY    FAIR      86  38  18 S13       29.63F
SCOTTSDALE     FAIR      86  37  17 SW10G21   29.65F
MESA-FALCON    PTSUNNY  N/A N/A N/A S13       29.64F
MESA-GATEWAY   MOSUNNY   86  37  17 W10G20    29.64F
CHANDLER       SUNNY     88  36  15 SW18      29.63F
$$

AZZ539-553-272200-
SOUTHWEST MARICOPA COUNTY AND PINAL COUNTY

CITY           SKY/WX    TMP DP  RH WIND       PRES   REMARKS
CASA GRANDE    FAIR      88  41  19 W10G20    29.64F
GILA BEND      FAIR      90  40  17 SW14      29.61F
$$

AZZ503-504-507>509-272200-
SOUTHEAST ARIZONA

CITY           SKY/WX    TMP DP  RH WIND       PRES   REMARKS
TUCSON         FAIR      88  34  14 W14G23    29.71F
DAVIS-MONTHAN  FAIR      87  35  15 W9G17     29.71F
RYAN FIELD     SUNNY     90  34  13 W13G24    29.71F
NOGALES        FAIR      84  35  17 SW16G23   29.81S
SIERRA VISTA   FAIR      82  34  17 W15G25    29.83F
DOUGLAS        FAIR      86  34  15 SW23G31   29.77F
SAFFORD        FAIR      88  33  14 W28G36    29.63F
$$

AZZ532-272200-
SOUTHWEST ARIZONA

CITY           SKY/WX    TMP DP  RH WIND       PRES   REMARKS
YUMA           PTSUNNY   92  37  14 VRB3      29.63S
$$

CAZ041-043-047-048-061-525>527-560>570-272200-
SOUTHERN CALIFORNIA

CITY           SKY/WX    TMP DP  RH WIND       PRES   REMARKS
DOWNTOWN L.A.  FAIR      81  47  30 VRB7G17   29.74F
L.A. AIRPORT   PTSUNNY   68  53  58 W20       29.78F
SAN DIEGO      PTSUNNY   68  59  73 NW10      29.82S
BURBANK        FAIR      81  36  19 NW14G31   29.75F
ONTARIO        CLOUDY    77  52  41 SW14      29.76F
RIVERSIDE      FAIR      76  54  46 W15G21    29.76F
PALM SPRINGS   FAIR      91  42  18 NW16      29.66F
EL CENTRO NAS  PTSUNNY   91  36  14 NE8       29.62F
IMPERIAL       FAIR      92  41  17 N7        29.61F
BLYTHE         FAIR      90  41  18 VRB3      29.63F
NEEDLES        FAIR      90  26  10 NE7       29.64F
$$

NVZ020-UTZ003-272200-
SOUTHERN NEVADA-UTAH

CITY           SKY/WX    TMP DP  RH WIND       PRES   REMARKS
LAS VEGAS      PTSUNNY   82  20  10 E7        29.68F
SALT LAKE CITY PTSUNNY   50  24  36 NW20G31   29.83S
$$

NMZ009-TXZ055-272200-
NEW MEXICO-WEST TEXAS

CITY           SKY/WX    TMP DP  RH WIND       PRES   REMARKS
ALBUQUERQUE    PTSUNNY   67  33  28 W17G24    29.61F
EL PASO        PTSUNNY   86  30  13 W26G47    29.65F
$$


........................KEY........................
SKY/WX - SKY CONDITION/WEATHER
TMP    - TEMPERATURE IN FAHRENHEIT
DP     - DEW POINT IN FAHRENHEIT
RH     - RELATIVE HUMIDITY IN PERCENT
WIND   - DIRECTION AND SPEED IN MILES PER HOUR (MPH)
VRB    - VARIABLE WIND DIRECTION
PRES   - MEAN SEA LEVEL PRESSURE IN INCHES OF MERCURY
         F - FALLING PRESSURE   R - RISING PRESSURE
         S - STEADY PRESSURE
VSB    - VISIBILITY IN MILES
HX     - HEAT INDEX IN FAHRENHEIT
WCI    - WIND CHILL INDEX IN FAHRENHEIT
TC     - TEMPERATURE IN CELSIUS WHICH IS ALSO KNOWN AS
         TEMPERATURE IN CENTIGRADE
AFB    - AIR FORCE BASE
         LUKE AFB IS LUKE AIR FORCE BASE
         DAVIS-MONTHAN IS DAVIS-MONTHAN AIR FORCE BASE
NAS    - NAVAL AIR STATION
         EL CENTRO NAS IS EL CENTRO NAVAL AIR STATION
N/A    - NOT AVAILABLE




USA.gov is the U.S. government's official web portal to all federal, state and local government web resources and services.